User: anonymous   Login
Location: Unspecified
(0.0000°N, 0.0000°E)
Time: 09:48:37
(UTC+00:00)
Language:

Courier 1B - Orbit

View from above orbital plane
View from above orbital plane
View from above satellite
View from above satellite

Ground track
Ground track

The orbit data is extracted from the following two-line orbital elements,

1 00058U 60013A   15109.85369474  .00000111  00000-0  37722-4 0  9993
2 00058 028.3291 300.5907 0165089 298.4918 059.9091 13.46291948684855
Epoch (UTC): 19 April 2015 20:29:19
Eccentricity: 0.0165089
inclination: 28.3291°
perigee height: 963 km
apogee height: 1209 km
right ascension of ascending node: 300.5907°
argument of perigee: 298.4918°
revolutions per day: 13.46291948
mean anomaly at epoch: 59.9091°
orbit number at epoch: 68485

The dashed part of the orbit path shows where the satellite is in the earth's shadow,  

DLR